Regional Weather Roundup
Issued by NWS Jackson, KY

Home | Current Version | Previous Version | Graphics & Text | Print | Product List | Glossary On
Versions: 1 2 3 4 5 6 7 8 9 10 11 12 13 14 15 16 17 18 19 20 21 22 23 24 25 26 27 28
000
ASUS43 KJKL 222110
RWRJKL

EAST KENTUCKY HOURLY WEATHER ROUNDUP
NATIONAL WEATHER SERVICE JACKSON KY
500 PM EDT SUN APR 22 2018

NOTE: "FAIR" INDICATES FEW OR NO CLOUDS BELOW 12,000 FEET WITH
NO SIGNIFICANT WEATHER AND/OR OBSTRUCTIONS TO VISIBILITY.

* THESE REPORTS ARE NOT UNDER NWS QUALITY CONTROL AND MAY NOT
  REPORT WEATHER SUCH AS PRECIPITATION AND FOG.

KYZ079-080-083-085-087-088-110-112-115-119-120-222200
...EASTERN KENTUCKY...

CITY           SKY/WX    TMP DP  RH WIND       PRES   REMARKS
JACKSON        PTSUNNY   70  33  25 CALM      30.15F
LONDON           N/A     71  36  27 VRB7      30.13F
SOMERSET*      PTSUNNY   70  37  30 MISG      30.13F
MONTICELLO*    PTSUNNY   69  49  48 SW16G23   30.14F
WILLIAMSBURG*    N/A     68  41  37 S10       30.13F
MIDDLESBORO*   PTSUNNY   71  47  42 SE8       30.15F
HARLAN APT*      N/A     70  40  33 E6        30.17S
PIKE CO APT*   PTSUNNY   71  35  26 NE7       30.15F
BIG SANDY APT*   N/A     74  33  22 SE7       30.16F
MOREHEAD APT*    N/A     70  27  19 NE13G20   30.18S HAZE
ASHLAND*         N/A     67  30  25 VRB5      30.20F
$$

KYZ035-036-041-042-044-050-067-078-099-222200
...CENTRAL KENTUCKY...

CITY           SKY/WX    TMP DP  RH WIND       PRES   REMARKS
MT STERLING*     N/A     70  37  30 NE10      30.17F
FLEMING/MASON*   N/A     65  33  29 E8        30.20F
DANVILLE*        N/A     68  43  40 CALM      30.14F
LEXINGTON        N/A     69  41  36 NE14      30.15F
FRANKFORT        N/A     71  38  29 E10G17    30.13F
LOUISVILLE     CLOUDY    72  43  35 SE13      30.11F
GLASGOW*       PTSUNNY   61  55  79 E7        30.11F
BOWLING GREEN  LGT RAIN  61  58  90 E9        30.09F
$$

KYZ091>093-OHZ055-061-077-WVZ005-015-034-035-042-222200
...SOUTHERN OHIO/WEST VIRGINIA...

CITY           SKY/WX    TMP DP  RH WIND       PRES   REMARKS
COVINGTON      CLOUDY    64  31  28 NE13      30.19F
COLUMBUS       CLOUDY    68  25  19 E9        30.23F
DAYTON         PTSUNNY   64  30  27 E10       30.23F
WILMINGTON       N/A     64  27  24 E10       30.21F
HUNTINGTON       N/A     64  28  25 NE10      30.19F
CHARLESTON     PTSUNNY   71  30  21 NE8       30.19F
PINEVILLE*       N/A     72  28  19 MISG      30.22F
BECKLEY          N/A     66  31  27 SE8       30.22S
BLUEFIELD        N/A     62  38  40 VRB7      30.23F
LOGAN CO APT*    N/A     72  34  25 NE8G16    30.17F
$$

VAZ002-007-008-TNZ017-027-036-066-071-222200
...SOUTHWEST VIRGINIA/EAST TENNESSEE...

CITY           SKY/WX    TMP DP  RH WIND       PRES   REMARKS
WISE*            N/A     66  36  32 S6        30.21S
JONESVILLE*    MOCLDY    68  46  45 S7        30.19F
ABINGDON*        N/A     65  48  52 S9        30.21F
BRISTOL        CLOUDY    64  49  57 S10       30.21S
MORRISTOWN*    MOCLDY    66  50  55 SE8G17    30.16F
SEVIERVILLE*   CLOUDY    66  50  55 SW3       30.15F
KNOXVILLE      CLOUDY    65  53  65 SE7       30.14F
LAFOLLETTE*    PTCLDY    66  48  52 SW8       30.19S
OAK RIDGE      LGT RAIN  64  53  67 CALM      30.17F
CROSSVILLE     LGT RAIN  54  52  93 E7        30.14F
NASHVILLE      CLOUDY    59  56  89 E15       30.02F
$$

...KEY TO REMARKS...
VSB - VISIBILITY IN MILES
WCI - WIND CHILL INDEX
HX  - HEAT INDEX

$$




USA.gov is the U.S. government's official web portal to all federal, state and local government web resources and services.